Change the Weather History Date:

Friday, November 11, 2011

  Actual Average Record
Temperature  
Mean Temperature 37 °F 37 °F  
Max Temperature 48 °F 44 °F 62 °F (1990)
Min Temperature 26 °F 31 °F -2 °F (2000)
Degree Days  
Heating Degree Days 28 28  
Month to date heating degree days 310 283  
Since 1 July heating degree days 973 1071  
Cooling Degree Days 0 0  
Month to date cooling degree days 0 0  
Year to date cooling degree days 426 450  
Moisture  
Dew Point 27 °F    
Average Humidity 63    
Maximum Humidity 92    
Minimum Humidity 34    
Precipitation  
Precipitation 0.04 in 0.07 in 0.89 in (1968)
Month to date precipitation 0.10 0.76  
Year to date precipitation 12.76 12.72  
Snow  
Snow T in 0.10 in 3.60 in (1992)
Month to date snowfall T 1.2  
Since 1 July snowfall T 1.3  
Since 1 September snowfall T 1.3  
Snow Depth 0.00 in    
Sea Level Pressure  
Sea Level Pressure 29.59 in    
Wind  
Wind Speed 15 mph (South)    
Max Wind Speed 41 mph    
Max Gust Speed 52 mph    
Visibility 10 miles    
Events Fog , Rain , Snow    
T = Trace of Precipitation, MM = Missing Value Source: NWS Daily Summary

Daily Weather History Graph

Daily Weather History Graph

Search for Another Location

Airport or City:

Trip Planner

Search our weather history database for the weather conditions in past years. The results will help you decide how hot, cold, wet, or windy it might be!

Date:

Astronomy

Nov. 11, 2011 Rise Set
Actual Time 6:49 AM PST 4:18 PM PST
Civil Twilight 6:15 AM PST 4:51 PM PST
Nautical Twilight 5:38 AM PST 5:28 PM PST
Astronomical Twilight 5:02 AM PST 6:04 PM PST
Moon 4:43 PM PST (11/11) 7:48 AM PST (11/11)
Length of Visible Light 10h 35m
Length of Day
9h 29m
Full, 99% of the Moon is Illuminated
Nov 11
Full
Nov 18
Last Quarter
Nov 24
New
Dec 2
First Quarter
Dec 10
Full

Hourly Weather History & Observations

Time (PST) Temp. Windchill Dew Point Humidity Pressure Visibility Wind Dir Wind Speed Gust Speed Precip Events Conditions
12:53 AM 32.0 °F 28.7 °F 23.0 °F 69% 29.94 in 10.0 mi SSE 3.5 mph - N/A   Partly Cloudy
1:53 AM 34.0 °F 26.6 °F 23.0 °F 64% 29.91 in 10.0 mi SSE 9.2 mph - N/A   Partly Cloudy
2:53 AM 33.1 °F 26.1 °F 23.0 °F 66% 29.89 in 10.0 mi SE 8.1 mph - N/A   Mostly Cloudy
3:53 AM 33.1 °F 24.4 °F 23.0 °F 66% 29.86 in 10.0 mi SSE 11.5 mph - N/A   Scattered Clouds
4:53 AM 32.0 °F - 23.0 °F 69% 29.86 in 10.0 mi Calm Calm - N/A   Scattered Clouds
5:53 AM 28.4 °F 23.3 °F 21.2 °F 74% 29.78 in 10.0 mi SSE 4.6 mph - N/A   Scattered Clouds
6:53 AM 26.6 °F 21.2 °F 21.2 °F 80% 29.76 in 10.0 mi NNE 4.6 mph - N/A Fog Scattered Clouds
7:53 AM 33.8 °F 25.8 °F 23.0 °F 65% 29.73 in 10.0 mi SSE 10.4 mph - N/A Fog Mostly Cloudy
8:53 AM 36.0 °F 27.1 °F 24.1 °F 62% 29.74 in 10.0 mi SSE 13.8 mph - N/A   Mostly Cloudy
9:53 AM 42.1 °F 34.9 °F 25.0 °F 51% 29.69 in 10.0 mi SSE 13.8 mph - N/A   Mostly Cloudy
10:53 AM 46.9 °F - 23.0 °F 39% 29.64 in 10.0 mi South 13.8 mph 23.0 mph N/A   Overcast
11:53 AM 48.0 °F - 21.9 °F 36% 29.60 in 10.0 mi SSW 13.8 mph - N/A   Overcast
12:53 PM 48.0 °F - 21.9 °F 36% 29.57 in 10.0 mi SSW 17.3 mph 23.0 mph N/A   Overcast
1:53 PM 46.9 °F - 21.9 °F 37% 29.55 in 10.0 mi SSW 15.0 mph - N/A   Overcast
2:53 PM 46.0 °F 40.6 °F 23.0 °F 40% 29.52 in 10.0 mi SW 11.5 mph - N/A   Overcast
3:53 PM 46.0 °F 40.2 °F 23.0 °F 40% 29.49 in 10.0 mi SW 12.7 mph 19.6 mph N/A   Overcast
4:53 PM 46.0 °F 37.0 °F 30.0 °F 54% 29.45 in 10.0 mi SSW 27.6 mph 47.2 mph 0.00 in Rain Light Rain
5:53 PM 41.0 °F 29.5 °F 37.0 °F 86% 29.44 in 8.0 mi SW 32.2 mph 43.7 mph 0.00 in Rain Light Rain
6:17 PM 41.0 °F 30.2 °F 37.4 °F 87% 29.39 in 7.0 mi SSW 27.6 mph 33.4 mph 0.02 in Rain Light Rain
6:53 PM 41.0 °F 31.4 °F 37.0 °F 86% 29.42 in 10.0 mi SSW 21.9 mph 29.9 mph 0.04 in Rain Light Rain
7:53 PM 41.0 °F 31.1 °F 36.0 °F 82% 29.37 in 10.0 mi SSW 23.0 mph 29.9 mph 0.00 in   Overcast
8:53 PM 39.9 °F 30.8 °F 37.0 °F 89% 29.37 in 10.0 mi SSW 18.4 mph 27.6 mph N/A   Overcast
9:53 PM 39.9 °F 29.7 °F 36.0 °F 86% 29.37 in 10.0 mi SSW 23.0 mph 28.8 mph 0.00 in   Overcast
10:53 PM 37.0 °F 27.4 °F 30.9 °F 79% 29.37 in 10.0 mi SSW 17.3 mph - 0.00 in   Mostly Cloudy
11:23 PM 35.6 °F 24.2 °F 28.4 °F 75% 29.36 in 10.0 mi SW 21.9 mph - N/A   Mostly Cloudy
11:53 PM 35.1 °F 23.8 °F 28.0 °F 76% 29.40 in 10.0 mi SW 20.7 mph 29.9 mph 0.00 in Rain , Snow Light Rain